Вернуться в каталог

STARLINK-37946

АктивенСвязьSSO
NORAD 69672·PAYLOAD·🇺🇸 United States

Запущен Jun 21, 2026 с Vandenberg Space Force Base

Loading…

Ближайшие Пролёты (ближайшие 24 часа)

TLE

СвежийSource: CelesTrak SupGP

Эпоха: Sep 14, 2026, 22:33 UTC

1 69672C 26143Z   26257.94006944  .00020084  00000+0  62351-3 0  2574
2 69672  97.2833 301.2611 0001084 108.1145 259.6538 15.33427115    12

Отслеживайте STARLINK-37946 в реальном времени с AllMySat

Download on the App Store